Starlink 31557

operational
NORAD ID: 59357 Int'l Des: 2024-060 Owner: SPXS Country: US Constellation: starlink
LEOCIRCULAR

About Starlink 31557

Description loading...

Live Position

Loading 3D Globe...

Upcoming Passes

Altitude History

Altitude vs Time

uPlot chart will show altitude changes over time

Two-Line Element Set

1 59357U 24060K 25304.96887701 .00000198 00000-0 16710-4 0 9998
2 59357 43.0023 262.7114 0001449 270.5905 89.4781 15.27573950 90428
Epoch: Oct 31, 2025 • Age: 24 hours

Current Status

Altitude 482.3 km
Velocity 7.63 km/s
Sub-Earth Point 6.72°N, 119.62°W
Launch Date Mar 31, 2024
Age 1.5 years
Type internet

Technical Details

Classification Payload
Mass 730.00 kg
Dry Mass 700.00 kg
Total Mass 730.00 kg
Length 0.30 m
Diameter 4.10 m
Span 29.00 m
Shape Box + pan
Manufacturer SPXS
Bus Type Starlink V2M
Phase Status In Orbit
Owner/State SPXS/US

Large Constellations

Loading constellations...